VK6WB Weather Reports


time (UTC)temp
C
wind
direction
speed
KPH
gust
KPH
rain 1hr
cm
rain 24hr
cm
rain mn
cm
humidity
%
barometer
mb
20260503221004 10 270 3.2 3.2 0.00 0.00 0.00 11 1023.2
20260503220004 10 278 3.2 3.2 0.00 0.00 0.00 12 1023.1
20260503215004 10 275 0.0 6.4 0.00 0.00 0.00 12 1023.0
20260503214004 10 296 3.2 6.4 0.00 0.00 0.00 13 1023.0
20260503213004 10 302 3.2 6.4 0.00 0.00 0.00 14 1022.9
20260503212004 11 300 3.2 8.0 0.00 0.00 0.00 14 1022.9
20260503211004 11 311 3.2 6.4 0.00 0.00 0.00 15 1022.8
20260503210005 11 305 3.2 6.4 0.00 0.00 0.00 15 1022.9
20260503205003 11 300 3.2 8.0 0.00 0.00 0.00 16 1022.9
20260503204004 10 314 3.2 6.4 0.00 0.00 0.00 20 1022.6
20260503203004 10 318 3.2 6.4 0.00 0.00 0.00 23 1022.7
20260503202003 10 321 3.2 6.4 0.00 0.00 0.00 23 1022.6
20260503201004 11 317 3.2 6.4 0.00 0.00 0.00 25 1022.5
20260503200004 11 311 3.2 6.4 0.00 0.00 0.00 25 1022.5
20260503195005 11 286 3.2 4.8 0.00 0.00 0.00 25 1022.4
20260503194003 11 308 1.6 4.8 0.00 0.00 0.00 27 1022.4
20260503193004 11 313 3.2 4.8 0.00 0.00 0.00 27 1022.4
20260503192004 11 306 1.6 3.2 0.00 0.00 0.00 26 1022.5
20260503191003 11 314 3.2 3.2 0.00 0.00 0.00 27 1022.5
20260503190004 11 311 1.6 6.4 0.00 0.00 0.00 26 1022.4
20260503185005 11 314 3.2 6.4 0.00 0.00 0.00 26 1022.4
20260503184005 12 302 3.2 8.0 0.00 0.00 0.00 25 1022.4
20260503183005 12 306 3.2 9.7 0.00 0.00 0.00 25 1022.6
20260503182006 12 305 4.8 12.9 0.00 0.00 0.00 23 1022.6
20260503181005 12 296 4.8 9.7 0.00 0.00 0.00 22 1022.6
20260503180005 12 307 4.8 12.9 0.00 0.00 0.00 20 1022.6
20260503175005 12 301 4.8 8.0 0.00 0.00 0.00 18 1022.6
20260503174005 12 300 3.2 8.0 0.00 0.00 0.00 17 1022.6
20260503173005 12 312 3.2 8.0 0.00 0.00 0.00 18 1022.6
20260503172005 12 303 3.2 4.8 0.00 0.00 0.00 18 1022.5
20260503171005 12 305 1.6 6.4 0.00 0.00 0.00 16 1022.6
20260503151005 12 304 3.2 4.8 0.00 0.00 0.00 16 1022.4
20260503131004 14 315 1.6 4.8 0.00 0.00 0.00 34 1022.0
20260503081005 20 300 9.7 17.7 0.00 0.00 0.00 36 1020.5
20260503072004 20 292 14.5 22.5 0.00 0.00 0.00 32 1020.5
20260503071005 20 300 9.7 22.5 0.00 0.00 0.00 31 1020.4
20260503055005 19 307 6.4 17.7 0.00 0.00 0.00 26 1020.8
20260503054004 18 319 6.4 19.3 0.00 0.00 0.00 26 1020.9
20260503053004 19 300 8.0 16.1 0.00 0.00 0.00 23 1020.9
20260503052004 18 293 4.8 22.5 0.00 0.00 0.00 26 1021.0
20260503051004 18 303 6.4 17.7 0.00 0.00 0.00 23 1021.1
20260503050005 18 304 11.3 17.7 0.00 0.00 0.00 22 1021.3
20260503045004 17 303 9.7 16.1 0.00 0.00 0.00 20 1021.4
20260503044004 17 269 6.4 17.7 0.00 0.00 0.00 22 1021.5
20260503043005 16 273 11.3 19.3 0.00 0.00 0.00 22 1021.7
20260503042004 16 287 6.4 17.7 0.00 0.00 0.00 21 1021.9
20260503041004 16 299 8.0 19.3 0.00 0.00 0.00 19 1022.0
20260503040004 16 279 9.7 20.9 0.00 0.00 0.00 16 1022.1
20260503035004 16 300 8.0 24.1 0.00 0.00 0.00 18 1022.3
20260503034004 16 302 11.3 19.3 0.00 0.00 0.00 14 1022.4
20260503033004 16 308 11.3 22.5 0.00 0.00 0.00 15 1022.4
20260503032004 16 298 6.4 22.5 0.00 0.00 0.00 14 1022.6
20260503031004 16 307 11.3 24.1 0.00 0.00 0.00 12 1022.5
20260503030004 16 299 9.7 22.5 0.00 0.00 0.00 11 1022.7
20260503025004 16 302 12.9 17.7 0.00 0.00 0.00 10 1022.6
20260503024004 16 315 6.4 20.9 0.00 0.00 0.00 10 1022.8
20260503023004 16 294 11.3 19.3 0.00 0.00 0.00 10 1022.8
20260503022004 16 303 6.4 17.7 0.00 0.00 0.00 10 1023.0
20260503021004 16 317 6.4 16.1 0.00 0.00 0.00 10 1022.9
20260503020004 16 284 4.8 12.9 0.00 0.00 0.00 10 1023.0
20260503015004 26 307 4.8 16.1 0.00 0.00 0.00 10 1022.9
20260503014004 16 298 3.2 17.7 0.00 0.00 0.00 10 1022.9
20260503013005 16 312 3.2 17.7 0.00 0.00 0.00 10 1023.0
20260503012004 15 309 9.7 20.9 0.00 0.00 0.00 10 1022.9
20260503011004 15 312 6.4 14.5 0.00 0.00 0.00 10 1022.9
20260503010004 15 303 8.0 14.5 0.00 0.00 0.00 10 1022.9
20260503005004 14 295 8.0 12.9 0.00 0.00 0.00 10 1022.9
20260503004004 13 310 6.4 14.5 0.00 0.00 0.00 10 1022.9
20260503003004 13 302 4.8 9.7 0.00 0.00 0.00 10 1022.9
20260503002003 12 299 6.4 11.3 0.00 0.00 0.00 10 1022.7
20260503001004 12 309 6.4 12.9 0.00 0.00 0.00 10 1022.7
20260503000005 11 293 6.4 11.3 0.00 0.00 0.00 10 1022.5
20260502235004 11 312 6.4 9.7 0.00 0.00 0.00 10 1022.4
20260502234004 10 304 3.2 9.7 0.00 0.00 0.00 10 1022.3
20260502233004 9 311 6.4 9.7 0.00 0.00 0.00 10 1022.2
20260502232004 9 299 3.2 8.0 0.00 0.00 0.00 10 1022.0
20260502231003 9 303 6.4 9.7 0.00 0.00 0.00 10 1022.1
20260502230004 8 282 3.2 8.0 0.00 0.00 0.00 10 1021.9
20260502225004 8 302 4.8 6.4 0.00 0.00 0.00 10 1021.8
20260502224003 8 279 4.8 6.4 0.00 0.00 0.00 10 1021.7
20260502223004 8 268 3.2 4.8 0.00 0.00 0.00 10 1021.5
20260502222004 8 278 1.6 3.2 0.00 0.00 0.00 10 1021.5